Location: Newark
(41.2758°N, 92.6808°W)
Time: 00:50:53
(UTC+00:00)

Envisat - Pass Details

Date: 30 September 2019
Orbit: 764 x 766 km, 98.1° (Epoch: 22 October)

Event Time Altitude Azimuth Distance (km) Brightness Sun altitude
Rises 01:28:38 0° 205° (SSW) 3,219 6.4 -18.1°
Reaches altitude 10° 01:31:35 10° 223° (SW) 2,298 5.8 -18.6°
Maximum altitude 01:35:07 19° 268° (W) 1,764 5.8 -19.3°
Drops below altitude 10° 01:38:41 10° 313° (NW) 2,309 6.4 -19.9°
Sets 01:41:40 0° 331° (NNW) 3,240 6.9 -20.5°
